This demonstration page uses our WeatherBlox Daily Observations layout. Learn more.

Left ArrowRight Arrow

34.74481, -87.66753

Hourly Observations for September 21, 2019

Temp ( °F °C ) Dew Point ( °F °C ) Humidity (%) Winds ( mph kmh ) Pressure ( in mb ) Visibility ( mi km ) Precip ( " mm )
12:53 am 00:53 Clear 68 20 59 15 73 73 ESE 3 6 30.19 1022 10 16 0.00 0.00
1:53 am 01:53 Clear 66 18.9 58 14.4 75 75 SE 5 7 30.19 1022 10 16 0.00 0.00
3:53 am 03:53 Clear 64 17.8 59 15 84 84 NE 5 7 30.20 1023 10 16 0.00 0.00
4:53 am 04:53 Clear 62 16.7 58 14.4 86 86 NE 3 6 30.22 1023 10 16 0.00 0.00
5:53 am 05:53 Clear 61 16.1 57 13.9 87 87 E 3 6 30.23 1024 10 16 0.00 0.00
6:53 am 06:53 Sunny 62 16.7 57 13.9 84 84 ESE 3 6 30.24 1024 10 16 0.00 0.00
7:53 am 07:53 Sunny 67 19.4 57 13.9 71 71 E 3 6 30.26 1025 10 16 0.00 0.00
8:53 am 08:53 Sunny 74 23.3 56 13.3 54 54 SE 6 9 30.27 1025 10 16 0.00 0.00
9:53 am 09:53 Sunny 82 27.8 58 14.4 44 44 S 10 17 30.26 1025 10 16 0.00 0.00
10:53 am 10:53 Sunny 87 30.6 58 14.4 37 37 SSW 9 15 30.26 1025 10 16 0.00 0.00
11:53 am 11:53 Mostly Sunny 88 31.1 54 12.2 31 31 VRB 5 7 30.24 1024 10 16 0.00 0.00
12:53 pm 12:53 Partly Cloudy 88 31.1 54 12.2 31 31 VRB 3 6 30.21 1023 10 16 0.00 0.00
1:53 pm 13:53 Partly Cloudy 90 32.2 53 11.7 28 28 SSE 8 13 30.18 1022 10 16 0.00 0.00
2:53 pm 14:53 Sunny 91 32.8 53 11.7 27 27 SSE 9 15 30.15 1021 10 16 0.00 0.00
3:53 pm 15:53 Sunny 92 33.3 54 12.2 28 28 SE 10 17 30.14 1021 10 16 0.00 0.00
4:53 pm 16:53 Sunny 90 32.2 54 12.2 29 29 SW 8 13 30.13 1020 10 16 0.00 0.00
5:53 pm 17:53 Sunny 88 31.1 54 12.2 31 31 SSW 7 11 30.13 1020 10 16 0.00 0.00
6:53 pm 18:53 Clear 82 27.8 56 13.3 41 41 SSW 5 7 30.13 1020 10 16 0.00 0.00
7:53 pm 19:53 Clear 74 23.3 59 15 60 60 SE 3 6 30.14 1021 10 16 0.00 0.00
8:53 pm 20:53 Clear 72 22.2 59 15 64 64 E 3 6 30.15 1021 10 16 0.00 0.00
9:53 pm 21:53 Clear 70 21.1 60 15.6 71 71 Calm 30.15 1021 10 16 0.00 0.00
10:53 pm 22:53 Clear 69 20.6 59 15 70 70 Calm 30.15 1021 10 16 0.00 0.00
11:53 pm 23:53 Mostly Clear 68 20 60 15.6 76 76 Calm 30.15 1021 10 16 0.00 0.00

Powered by AerisWeather